Flag for Austria Weather past 2 weeks in Amstetten, Lower Austria, Austria

Now
92 °F

Passing clouds.


Feels Like: 92 °F
Forecast: 58 / 92 °F
Wind: N/A

Location: Linz / Hoersching-Flughafen

Current Time: Aug 30, 2015 at 2:28:41 PM

Latest Report: Aug 30, 2015 at 2:00 PM


Visibility: 19 mi

Pressure: 30.03 "Hg

Humidity: 38%

Dew point: 62 °F

Location of AmstettenLocation

Historic Weather in Amstetten — Graph

°F

Amstetten temperature yesterday

Maximum temperature yesterday: 92 °F (at 5:00 PM)
Minimum temperature yesterday: 63 °F (at 7:00 AM)
Average temperature yesterday: 75 °F

Past Weeks' High & Low Weather Summary

 TemperatureHumidityPressure
High92 °F (Aug 29, 5:00 PM)96% (Aug 21, 12:00 AM)30.27 "Hg (Aug 21, 12:00 AM)
Low46 °F (Aug 26, 6:00 AM)17% (Aug 26, 4:00 PM)29.66 "Hg (Aug 24, 7:00 PM)
Average67 °F66%30.00 "Hg
* Reported Aug 15 1:00 PM — Aug 30 1:00 PM, Amstetten, Weather by CustomWeather, © 2015

Note: Actual official high and low records may vary slightly from our data, if they occured in-between our weather recording intervals... More about our weather records

Advertising

Amstetten weather history for previous 24 hours

 ConditionsComfort  
Time TempWeatherWind HumidityBarometerVisibility
1:00 PM
Sun, Aug 30
87 °FPassing clouds.N/A41%30.06 "Hg10 mi
12:00 PMN/APassing clouds.6 mphN/AN/A3 mi
11:00 AM80 °FPassing clouds.N/A52%30.09 "Hg19 mi
10:00 AMN/APassing clouds.10 mphN/AN/A0 mi
9:00 AM73 °FPassing clouds.N/A67%30.09 "Hg12 mi
8:00 AM67 °FPassing clouds.N/A82%30.10 "Hg12 mi
7:00 AM63 °FPassing clouds.N/A88%30.10 "Hg10 mi
6:00 AM63 °FPassing clouds.N/A83%30.09 "Hg13 mi
5:00 AM64 °FPassing clouds.No wind85%30.08 "Hg16 mi
4:00 AM67 °FPassing clouds.N/A75%30.07 "Hg14 mi
3:00 AM72 °FMild.N/A68%30.06 "Hg22 mi
2:00 AM74 °FPassing clouds.3 mph62%30.07 "Hg22 mi
1:00 AM76 °FMild.5 mph61%30.07 "Hg19 mi
12:00 AM75 °FMild.N/A65%30.08 "Hg14 mi
11:00 PM
Sat, Aug 29
77 °FPassing clouds.N/A63%30.08 "Hg19 mi
10:00 PM79 °FPassing clouds.N/A60%30.08 "Hg22 mi
9:00 PMN/APassing clouds.8 mphN/AN/A1 mi
8:00 PM85 °FClear.5 mph49%30.06 "Hg25 mi
6:00 PM91 °FSunny.5 mph34%30.06 "Hg19 mi
5:00 PM92 °FPassing clouds.3 mph32%30.07 "Hg22 mi
3:00 PMN/APassing clouds.6 mphN/AN/A3 mi
2:00 PM87 °FPassing clouds.3 mph38%30.14 "Hg28 mi
Weather by CustomWeather, © 2015

See weather overviewHow to use our weather pages